WXM80 ListenWXM80 Stop

You find our weather info also at:

UK Metoffice

WeatherCloud

Weather Underground

Northeastern Weather Network

AWEKAS

Citizen Weather Observer Program (CWOP)

HAMweather, WeatherForYou, PWS Weather


Weather Underground History page Text

Daily Summary for January 14, 2016 Units:  English    Metric   Both
« Previous Day
Next Day »
Daily Weekly Monthly Yearly Custom
  High: Low: Average:
Temperature: 36.1 °F 23.6 °F 30.2 °F
Dew Point: 26.7 °F 10.0 °F 18.9 °F
Humidity: 78 % 54 % 63 %
Wind Speed: 11.0 mph 0.0 mph 3.4 mph
Wind Gust: 19.6 mph - -
Wind:- - WSW
Pressure: 29.98 in 29.86 in -
Precipitation: 0.00 in    
Historical Graphs
 
 
Tabular Data for January 14, 2016
Time Temperature Dew Point Pressure Wind Wind Speed Wind Gust Humidity Rainfall Rate (Hourly)
00:02 24.9 °F 11.4 °F 29.96 in WSW 5.0 mph 9.2 mph 56 % 0.00 in
00:08 24.8 °F 11.3 °F 29.96 in WSW 4.9 mph 8.1 mph 56 % 0.00 in
00:13 24.7 °F 11.2 °F 29.96 in SW 2.6 mph 6.9 mph 56 % 0.00 in
00:18 24.7 °F 10.8 °F 29.96 in WSW 4.9 mph 10.4 mph 55 % 0.00 in
00:23 24.5 °F 11.0 °F 29.96 in SW 5.0 mph 8.1 mph 56 % 0.00 in
00:33 24.3 °F 11.2 °F 29.96 in WSW 4.2 mph 5.8 mph 57 % 0.00 in
00:38 24.2 °F 11.5 °F 29.96 in SW 2.5 mph 9.0 mph 58 % 0.00 in
00:43 24.2 °F 11.5 °F 29.96 in WSW 1.9 mph 6.9 mph 58 % 0.00 in
00:53 24.2 °F 11.1 °F 29.96 in West 4.2 mph 5.8 mph 57 % 0.00 in
00:59 24.2 °F 11.1 °F 29.95 in West 7.6 mph 9.2 mph 57 % 0.00 in
01:04 24.2 °F 11.5 °F 29.95 in South 2.3 mph 3.5 mph 58 % 0.00 in
01:09 24.2 °F 11.5 °F 29.95 in SSW 2.7 mph 3.5 mph 58 % 0.00 in
01:14 24.0 °F 11.3 °F 29.95 in South 4.2 mph 6.9 mph 58 % 0.00 in
01:24 23.9 °F 11.3 °F 29.95 in WSW 5.1 mph 9.2 mph 58 % 0.00 in
01:29 23.8 °F 11.2 °F 29.95 in WSW 4.1 mph 6.0 mph 58 % 0.00 in
01:34 23.8 °F 11.2 °F 29.95 in WNW 1.1 mph 4.6 mph 58 % 0.00 in
01:39 23.9 °F 11.3 °F 29.94 in SW 4.3 mph 6.9 mph 58 % 0.00 in
01:44 24.0 °F 11.0 °F 29.94 in SW 4.5 mph 9.0 mph 57 % 0.00 in
01:50 24.1 °F 10.6 °F 29.94 in WSW 4.1 mph 9.2 mph 56 % 0.00 in
01:55 24.2 °F 11.1 °F 29.94 in West 3.4 mph 9.0 mph 57 % 0.00 in
02:00 24.2 °F 10.7 °F 29.93 in WNW 2.0 mph 8.1 mph 56 % 0.00 in
02:05 24.2 °F 10.7 °F 29.93 in WSW 2.0 mph 3.5 mph 56 % 0.00 in
02:10 24.2 °F 11.1 °F 29.93 in WSW 3.1 mph 6.9 mph 57 % 0.00 in
02:15 24.2 °F 11.1 °F 29.93 in WNW 4.7 mph 8.0 mph 57 % 0.00 in
02:20 24.2 °F 11.1 °F 29.92 in WNW 5.1 mph 8.1 mph 57 % 0.00 in
02:25 24.1 °F 11.0 °F 29.92 in West 3.2 mph 5.0 mph 57 % 0.00 in
02:30 24.0 °F 11.0 °F 29.93 in West 4.7 mph 9.2 mph 57 % 0.00 in
02:35 24.0 °F 10.6 °F 29.93 in West 2.6 mph 8.1 mph 56 % 0.00 in
02:41 24.1 °F 11.0 °F 29.93 in WSW 4.7 mph 13.0 mph 57 % 0.00 in
02:46 24.1 °F 11.0 °F 29.94 in WSW 6.3 mph 10.4 mph 57 % 0.00 in
02:51 24.1 °F 11.0 °F 29.94 in WNW 3.6 mph 8.1 mph 57 % 0.00 in
02:56 24.1 °F 11.4 °F 29.94 in SW 6.5 mph 11.5 mph 58 % 0.00 in
03:01 24.1 °F 11.0 °F 29.94 in WSW 7.9 mph 10.4 mph 57 % 0.00 in
03:06 24.1 °F 11.0 °F 29.95 in West 7.2 mph 12.7 mph 57 % 0.00 in
03:11 24.1 °F 10.6 °F 29.94 in WNW 6.2 mph 12.7 mph 56 % 0.00 in
03:16 24.1 °F 11.0 °F 29.94 in SW 4.0 mph 8.1 mph 57 % 0.00 in
03:21 24.0 °F 11.0 °F 29.93 in West 3.9 mph 9.2 mph 57 % 0.00 in
03:26 24.0 °F 11.0 °F 29.93 in WNW 5.2 mph 9.2 mph 57 % 0.00 in
03:32 24.0 °F 11.3 °F 29.93 in West 2.9 mph 3.5 mph 58 % 0.00 in
03:37 24.0 °F 11.3 °F 29.93 in WSW 2.8 mph 8.1 mph 58 % 0.00 in
03:42 24.0 °F 11.7 °F 29.93 in West 2.4 mph 8.1 mph 59 % 0.00 in
03:52 23.9 °F 11.3 °F 29.92 in WNW 2.2 mph 5.8 mph 58 % 0.00 in
03:57 24.0 °F 11.3 °F 29.92 in SW 5.6 mph 10.4 mph 58 % 0.00 in
04:02 24.0 °F 11.0 °F 29.92 in SSW 4.4 mph 9.2 mph 57 % 0.00 in
04:07 24.1 °F 11.4 °F 29.92 in SW 4.5 mph 9.2 mph 58 % 0.00 in
04:12 24.1 °F 11.4 °F 29.92 in WSW 4.0 mph 6.9 mph 58 % 0.00 in
04:17 24.1 °F 11.4 °F 29.92 in SSW 4.9 mph 10.0 mph 58 % 0.00 in
04:23 24.1 °F 11.0 °F 29.92 in SW 1.5 mph 3.5 mph 57 % 0.00 in
04:28 24.1 °F 11.0 °F 29.93 in SW 5.9 mph 8.1 mph 57 % 0.00 in
04:33 24.1 °F 10.6 °F 29.92 in WSW 3.2 mph 8.1 mph 56 % 0.00 in
04:43 24.0 °F 10.6 °F 29.92 in SW 4.1 mph 6.0 mph 56 % 0.00 in
04:48 24.0 °F 10.6 °F 29.92 in SSW 2.3 mph 5.0 mph 56 % 0.00 in
04:58 23.9 °F 10.5 °F 29.92 in SW 1.6 mph 3.5 mph 56 % 0.00 in
05:03 23.8 °F 10.4 °F 29.92 in SSW 3.3 mph 5.0 mph 56 % 0.00 in
05:08 23.8 °F 10.0 °F 29.92 in SW 2.9 mph 4.6 mph 55 % 0.00 in
05:14 23.8 °F 10.4 °F 29.93 in WSW 4.3 mph 4.3 mph 56 % 0.00 in
05:19 23.8 °F 10.4 °F 29.93 in SW 4.6 mph 9.2 mph 56 % 0.00 in
05:24 23.8 °F 10.4 °F 29.93 in SW 5.4 mph 9.2 mph 56 % 0.00 in
05:34 23.9 °F 10.9 °F 29.93 in WSW 6.4 mph 11.5 mph 57 % 0.00 in
05:39 23.9 °F 11.3 °F 29.93 in SSW 3.3 mph 6.9 mph 58 % 0.00 in
05:44 24.0 °F 11.7 °F 29.93 in SW 4.5 mph 6.0 mph 59 % 0.00 in
05:49 24.0 °F 12.1 °F 29.93 in West 2.8 mph 9.2 mph 60 % 0.00 in
05:54 24.1 °F 12.6 °F 29.94 in SW 3.3 mph 8.1 mph 61 % 0.00 in
06:05 24.2 °F 13.8 °F 29.94 in SSW 6.2 mph 7.0 mph 64 % 0.00 in
06:10 24.2 °F 14.5 °F 29.94 in SW 5.2 mph 6.9 mph 66 % 0.00 in
06:15 24.2 °F 14.8 °F 29.94 in SW 4.7 mph 9.2 mph 67 % 0.00 in
06:20 24.2 °F 15.2 °F 29.94 in SSW 4.1 mph 8.1 mph 68 % 0.00 in
06:25 24.2 °F 15.5 °F 29.94 in WSW 1.4 mph 4.6 mph 69 % 0.00 in
06:30 24.2 °F 15.8 °F 29.94 in SW 3.0 mph 4.0 mph 70 % 0.00 in
06:35 24.1 °F 15.7 °F 29.94 in WSW 1.4 mph 2.3 mph 70 % 0.00 in
06:40 24.1 °F 16.1 °F 29.94 in SSW 3.7 mph 5.8 mph 71 % 0.00 in
06:45 24.0 °F 16.0 °F 29.94 in WSW 5.6 mph 8.1 mph 71 % 0.00 in
06:51 23.9 °F 16.2 °F 29.94 in SSW 4.8 mph 8.1 mph 72 % 0.00 in
06:56 23.9 °F 16.5 °F 29.94 in SW 3.3 mph 5.8 mph 73 % 0.00 in
07:01 23.8 °F 16.7 °F 29.94 in SSW 3.8 mph 6.9 mph 74 % 0.00 in
07:06 23.8 °F 17.0 °F 29.93 in South 3.6 mph 6.9 mph 75 % 0.00 in
07:11 23.7 °F 16.9 °F 29.93 in SW 2.5 mph 6.0 mph 75 % 0.00 in
07:16 23.6 °F 16.8 °F 29.93 in SSW 3.9 mph 6.9 mph 75 % 0.00 in
07:21 23.6 °F 16.8 °F 29.93 in SW 0.6 mph 2.3 mph 75 % 0.00 in
07:26 23.6 °F 16.8 °F 29.93 in SW 2.9 mph 3.5 mph 75 % 0.00 in
07:31 23.6 °F 17.1 °F 29.93 in SW 1.2 mph 3.5 mph 76 % 0.00 in
07:36 23.6 °F 17.1 °F 29.93 in WSW 2.9 mph 3.5 mph 76 % 0.00 in
07:42 23.6 °F 17.1 °F 29.93 in WSW 3.1 mph 4.0 mph 76 % 0.00 in
07:47 23.7 °F 17.5 °F 29.93 in SW 1.9 mph 4.6 mph 77 % 0.00 in
07:52 23.8 °F 17.6 °F 29.93 in SSW 6.0 mph 9.2 mph 77 % 0.00 in
07:57 23.8 °F 17.6 °F 29.93 in SW 2.4 mph 3.5 mph 77 % 0.00 in
08:02 23.9 °F 18.0 °F 29.93 in SW 0.8 mph 2.3 mph 78 % 0.00 in
08:07 24.0 °F 18.1 °F 29.93 in SW 2.9 mph 5.8 mph 78 % 0.00 in
08:12 24.0 °F 18.1 °F 29.93 in WSW 1.7 mph 3.5 mph 78 % 0.00 in
08:17 24.1 °F 18.2 °F 29.93 in SSW 3.6 mph 5.0 mph 78 % 0.00 in
08:22 24.2 °F 18.3 °F 29.93 in SW 2.5 mph 5.0 mph 78 % 0.00 in
08:27 24.3 °F 18.4 °F 29.93 in WSW 1.0 mph 2.3 mph 78 % 0.00 in
08:33 24.3 °F 18.4 °F 29.92 in SSW 2.5 mph 5.0 mph 78 % 0.00 in
08:43 24.7 °F 18.8 °F 29.92 in South 3.0 mph 3.5 mph 78 % 0.00 in
08:48 25.1 °F 18.6 °F 29.92 in SW 3.8 mph 6.9 mph 76 % 0.00 in
08:53 25.5 °F 18.7 °F 29.92 in SSW 5.5 mph 8.0 mph 75 % 0.00 in
08:58 26.0 °F 18.8 °F 29.92 in SSW 6.1 mph 10.0 mph 74 % 0.00 in
09:03 26.6 °F 18.8 °F 29.92 in West 8.3 mph 12.7 mph 72 % 0.00 in
09:08 27.0 °F 18.5 °F 29.92 in SW 5.3 mph 12.7 mph 70 % 0.00 in
09:13 27.4 °F 18.6 °F 29.92 in SW 9.2 mph 11.5 mph 69 % 0.00 in
09:18 27.9 °F 18.7 °F 29.92 in SW 4.5 mph 11.5 mph 68 % 0.00 in
09:24 28.2 °F 18.6 °F 29.92 in South 4.0 mph 4.6 mph 67 % 0.00 in
09:29 28.5 °F 18.2 °F 29.92 in SW 6.7 mph 12.7 mph 65 % 0.00 in
09:34 28.9 °F 17.9 °F 29.92 in WSW 10.6 mph 17.3 mph 63 % 0.00 in
09:39 29.1 °F 17.7 °F 29.92 in West 6.0 mph 10.4 mph 62 % 0.00 in
09:44 29.3 °F 17.5 °F 29.92 in WSW 7.0 mph 13.0 mph 61 % 0.00 in
09:49 29.4 °F 17.2 °F 29.92 in SW 7.2 mph 17.3 mph 60 % 0.00 in
09:54 29.7 °F 17.5 °F 29.93 in WSW 6.3 mph 13.0 mph 60 % 0.00 in
09:59 30.1 °F 17.5 °F 29.93 in SW 6.1 mph 12.0 mph 59 % 0.00 in
10:04 30.4 °F 17.4 °F 29.93 in WSW 5.9 mph 9.2 mph 58 % 0.00 in
10:09 30.6 °F 17.6 °F 29.92 in West 5.7 mph 8.1 mph 58 % 0.00 in
10:15 30.8 °F 17.7 °F 29.92 in WSW 2.6 mph 9.0 mph 58 % 0.00 in
10:20 30.9 °F 17.8 °F 29.92 in WSW 5.8 mph 7.0 mph 58 % 0.00 in
10:30 31.4 °F 18.7 °F 29.92 in WSW 8.0 mph 12.7 mph 59 % 0.00 in
10:35 31.7 °F 18.6 °F 29.91 in WSW 2.8 mph 5.8 mph 58 % 0.00 in
10:40 32.0 °F 18.9 °F 29.91 in WNW 2.9 mph 5.8 mph 58 % 0.00 in
10:45 32.3 °F 19.6 °F 29.91 in South 4.1 mph 9.2 mph 59 % 0.00 in
10:50 32.6 °F 19.4 °F 29.91 in WSW 11.0 mph 19.6 mph 58 % 0.00 in
10:55 32.7 °F 19.1 °F 29.91 in West 7.5 mph 9.2 mph 57 % 0.00 in
11:00 32.8 °F 18.8 °F 29.91 in WSW 9.6 mph 13.0 mph 56 % 0.00 in
11:06 32.8 °F 18.8 °F 29.92 in SW 6.2 mph 15.0 mph 56 % 0.00 in
11:11 32.7 °F 18.7 °F 29.92 in SSW 8.6 mph 13.8 mph 56 % 0.00 in
11:16 32.6 °F 19.0 °F 29.92 in WNW 2.4 mph 9.2 mph 57 % 0.00 in
11:21 32.6 °F 19.0 °F 29.91 in West 3.9 mph 9.2 mph 57 % 0.00 in
11:26 32.6 °F 19.0 °F 29.90 in SW 7.6 mph 14.0 mph 57 % 0.00 in
11:31 32.6 °F 19.0 °F 29.90 in West 3.8 mph 9.2 mph 57 % 0.00 in
11:36 32.7 °F 19.1 °F 29.90 in West 6.5 mph 13.8 mph 57 % 0.00 in
11:41 32.6 °F 19.4 °F 29.90 in SSW 4.9 mph 11.5 mph 58 % 0.00 in
11:51 32.7 °F 19.1 °F 29.89 in WNW 4.4 mph 13.8 mph 57 % 0.00 in
11:57 32.8 °F 19.2 °F 29.90 in WNW 4.9 mph 10.4 mph 57 % 0.00 in
12:02 32.6 °F 19.0 °F 29.89 in WSW 6.7 mph 14.0 mph 57 % 0.00 in
12:07 32.6 °F 19.4 °F 29.89 in WSW 6.4 mph 9.2 mph 58 % 0.00 in
12:12 32.8 °F 19.6 °F 29.89 in West 8.1 mph 11.5 mph 58 % 0.00 in
12:17 32.8 °F 19.2 °F 29.89 in SW 4.4 mph 12.7 mph 57 % 0.00 in
12:22 32.9 °F 19.7 °F 29.89 in WSW 2.7 mph 8.1 mph 58 % 0.00 in
12:27 33.0 °F 19.8 °F 29.89 in SW 5.3 mph 9.2 mph 58 % 0.00 in
12:32 33.1 °F 19.9 °F 29.88 in WSW 5.5 mph 8.1 mph 58 % 0.00 in
12:37 33.2 °F 19.6 °F 29.88 in SSW 5.9 mph 11.5 mph 57 % 0.00 in
12:42 33.4 °F 19.8 °F 29.88 in WSW 5.8 mph 11.5 mph 57 % 0.00 in
12:48 33.5 °F 19.9 °F 29.88 in WSW 3.3 mph 10.0 mph 57 % 0.00 in
12:53 33.7 °F 20.1 °F 29.87 in WSW 7.0 mph 18.4 mph 57 % 0.00 in
12:58 33.8 °F 20.2 °F 29.88 in SW 5.7 mph 9.2 mph 57 % 0.00 in
13:03 33.9 °F 20.3 °F 29.88 in SW 5.0 mph 11.5 mph 57 % 0.00 in
13:08 33.9 °F 20.3 °F 29.88 in SW 8.4 mph 11.5 mph 57 % 0.00 in
13:13 33.9 °F 19.8 °F 29.87 in WSW 6.6 mph 12.7 mph 56 % 0.00 in
13:18 34.0 °F 19.9 °F 29.87 in WSW 7.6 mph 10.4 mph 56 % 0.00 in
13:23 34.0 °F 19.9 °F 29.87 in SW 2.8 mph 9.2 mph 56 % 0.00 in
13:28 34.1 °F 20.0 °F 29.87 in WNW 5.3 mph 8.0 mph 56 % 0.00 in
13:33 34.1 °F 19.6 °F 29.87 in West 2.3 mph 3.5 mph 55 % 0.00 in
13:39 34.3 °F 20.2 °F 29.87 in West 5.4 mph 13.0 mph 56 % 0.00 in
13:44 34.4 °F 19.9 °F 29.86 in SW 3.3 mph 8.1 mph 55 % 0.00 in
13:49 34.5 °F 20.0 °F 29.87 in WSW 8.8 mph 11.5 mph 55 % 0.00 in
13:54 34.5 °F 20.4 °F 29.87 in West 3.9 mph 12.0 mph 56 % 0.00 in
13:59 34.6 °F 20.1 °F 29.87 in WSW 3.6 mph 12.7 mph 55 % 0.00 in
14:04 34.6 °F 20.1 °F 29.87 in SW 4.3 mph 10.4 mph 55 % 0.00 in
14:09 34.7 °F 20.2 °F 29.88 in SW 2.9 mph 9.2 mph 55 % 0.00 in
14:14 34.9 °F 20.4 °F 29.88 in WSW 5.9 mph 8.1 mph 55 % 0.00 in
14:19 35.1 °F 20.5 °F 29.88 in SW 8.3 mph 12.7 mph 55 % 0.00 in
14:24 35.2 °F 20.6 °F 29.88 in SW 9.3 mph 14.0 mph 55 % 0.00 in
14:30 35.3 °F 20.7 °F 29.88 in WSW 5.4 mph 14.0 mph 55 % 0.00 in
14:35 35.2 °F 20.2 °F 29.88 in WSW 5.0 mph 9.2 mph 54 % 0.00 in
14:40 35.2 °F 20.2 °F 29.89 in SW 4.4 mph 6.9 mph 54 % 0.00 in
14:45 35.1 °F 20.5 °F 29.89 in WNW 3.1 mph 7.0 mph 55 % 0.00 in
14:50 35.0 °F 20.4 °F 29.89 in WSW 5.3 mph 11.5 mph 55 % 0.00 in
15:00 35.0 °F 20.9 °F 29.90 in WSW 3.6 mph 9.2 mph 56 % 0.00 in
15:05 35.1 °F 20.5 °F 29.90 in West 4.4 mph 8.1 mph 55 % 0.00 in
15:10 35.1 °F 21.0 °F 29.90 in SW 2.0 mph 2.3 mph 56 % 0.00 in
15:15 35.2 °F 21.1 °F 29.90 in WSW 1.8 mph 4.6 mph 56 % 0.00 in
15:26 35.3 °F 21.6 °F 29.90 in NW 4.3 mph 5.8 mph 57 % 0.00 in
15:31 35.3 °F 21.6 °F 29.90 in NW 2.0 mph 5.8 mph 57 % 0.00 in
15:36 35.4 °F 21.7 °F 29.90 in SW 3.3 mph 6.9 mph 57 % 0.00 in
15:41 35.4 °F 21.7 °F 29.90 in WSW 1.9 mph 3.5 mph 57 % 0.00 in
15:46 35.4 °F 21.7 °F 29.91 in WNW 2.1 mph 5.8 mph 57 % 0.00 in
15:51 35.5 °F 22.2 °F 29.91 in WSW 3.8 mph 9.2 mph 58 % 0.00 in
15:56 35.5 °F 22.6 °F 29.91 in SW 2.3 mph 3.5 mph 59 % 0.00 in
16:01 35.5 °F 22.6 °F 29.91 in West 2.4 mph 4.6 mph 59 % 0.00 in
16:06 35.5 °F 23.0 °F 29.91 in SSW 2.0 mph 6.9 mph 60 % 0.00 in
16:12 35.5 °F 23.0 °F 29.92 in WSW 3.5 mph 6.0 mph 60 % 0.00 in
16:17 35.5 °F 23.0 °F 29.92 in WSW 6.4 mph 9.2 mph 60 % 0.00 in
16:22 35.5 °F 23.0 °F 29.92 in SW 3.1 mph 8.1 mph 60 % 0.00 in
16:27 35.5 °F 23.4 °F 29.92 in SSW 1.3 mph 5.0 mph 61 % 0.00 in
16:32 35.5 °F 23.0 °F 29.92 in West 3.6 mph 4.6 mph 60 % 0.00 in
16:37 35.5 °F 23.4 °F 29.92 in West 3.5 mph 6.9 mph 61 % 0.00 in
16:42 35.6 °F 23.9 °F 29.92 in WSW 5.4 mph 6.9 mph 62 % 0.00 in
16:47 35.6 °F 23.9 °F 29.93 in West 4.6 mph 9.2 mph 62 % 0.00 in
16:52 35.7 °F 23.9 °F 29.93 in WSW 4.7 mph 7.0 mph 62 % 0.00 in
16:57 35.7 °F 23.9 °F 29.94 in WNW 5.7 mph 10.0 mph 62 % 0.00 in
17:03 35.8 °F 24.0 °F 29.94 in WSW 5.6 mph 6.9 mph 62 % 0.00 in
17:08 35.8 °F 24.0 °F 29.95 in West 4.6 mph 9.2 mph 62 % 0.00 in
17:13 35.9 °F 24.5 °F 29.95 in WSW 2.9 mph 6.0 mph 63 % 0.00 in
17:23 36.0 °F 25.0 °F 29.95 in WSW 4.3 mph 9.2 mph 64 % 0.00 in
17:28 36.0 °F 25.0 °F 29.95 in West 3.8 mph 5.8 mph 64 % 0.00 in
17:33 36.1 °F 25.1 °F 29.95 in SW 5.1 mph 8.1 mph 64 % 0.00 in
17:38 36.1 °F 25.1 °F 29.95 in WSW 3.1 mph 4.0 mph 64 % 0.00 in
18:04 36.0 °F 25.0 °F 29.95 in WSW 1.0 mph 2.3 mph 64 % 0.00 in
18:09 36.0 °F 24.6 °F 29.96 in SW 0.6 mph 2.3 mph 63 % 0.00 in
18:14 35.9 °F 24.5 °F 29.95 in Calm     63 % 0.00 in
18:19 35.9 °F 24.5 °F 29.95 in Calm   1.2 mph 63 % 0.00 in
18:24 35.9 °F 24.5 °F 29.95 in Calm     63 % 0.00 in
18:29 35.9 °F 24.5 °F 29.96 in Calm     63 % 0.00 in
18:34 35.9 °F 24.5 °F 29.95 in Calm     63 % 0.00 in
18:39 35.8 °F 24.4 °F 29.95 in Calm     63 % 0.00 in
18:45 35.8 °F 24.8 °F 29.96 in SW 0.1 mph 1.2 mph 64 % 0.00 in
18:50 35.8 °F 24.8 °F 29.96 in Calm   1.2 mph 64 % 0.00 in
18:55 35.7 °F 24.7 °F 29.96 in Calm     64 % 0.00 in
19:00 35.7 °F 24.7 °F 29.95 in Calm     64 % 0.00 in
19:05 35.6 °F 24.6 °F 29.95 in Calm     64 % 0.00 in
19:10 35.6 °F 24.6 °F 29.95 in Calm     64 % 0.00 in
19:15 35.6 °F 25.0 °F 29.95 in Calm     65 % 0.00 in
19:20 35.6 °F 25.0 °F 29.95 in SW 0.6 mph 2.3 mph 65 % 0.00 in
19:25 35.5 °F 25.3 °F 29.96 in Calm   1.2 mph 66 % 0.00 in
19:30 35.5 °F 25.3 °F 29.96 in SW 0.1 mph 1.2 mph 66 % 0.00 in
19:36 35.4 °F 25.2 °F 29.96 in SW 0.7 mph 2.3 mph 66 % 0.00 in
19:51 35.4 °F 25.2 °F 29.96 in Calm     66 % 0.00 in
19:56 35.4 °F 25.2 °F 29.96 in Calm     66 % 0.00 in
20:01 35.4 °F 25.2 °F 29.96 in Calm     66 % 0.00 in
20:11 35.5 °F 25.3 °F 29.96 in Calm     66 % 0.00 in
20:16 35.5 °F 25.6 °F 29.96 in Calm     67 % 0.00 in
20:22 35.5 °F 25.6 °F 29.97 in Calm     67 % 0.00 in
20:27 35.4 °F 25.9 °F 29.97 in Calm     68 % 0.00 in
20:32 35.5 °F 26.7 °F 29.97 in Calm     70 % 0.00 in
20:37 35.4 °F 26.2 °F 29.97 in Calm     69 % 0.00 in
20:42 35.3 °F 26.1 °F 29.97 in Calm     69 % 0.00 in
20:47 35.3 °F 26.1 °F 29.97 in Calm     69 % 0.00 in
20:52 35.3 °F 26.1 °F 29.97 in Calm     69 % 0.00 in
20:57 35.3 °F 26.1 °F 29.97 in Calm   1.2 mph 69 % 0.00 in
21:02 35.2 °F 26.4 °F 29.97 in Calm     70 % 0.00 in
21:07 35.2 °F 26.4 °F 29.97 in Calm     70 % 0.00 in
21:13 35.1 °F 26.3 °F 29.96 in Calm     70 % 0.00 in
21:18 35.0 °F 26.2 °F 29.96 in Calm     70 % 0.00 in
21:23 35.0 °F 25.9 °F 29.96 in Calm     69 % 0.00 in
21:28 34.9 °F 26.1 °F 29.97 in SW 1.1 mph 2.3 mph 70 % 0.00 in
21:33 34.8 °F 26.0 °F 29.97 in SW 0.4 mph 1.2 mph 70 % 0.00 in
21:38 34.7 °F 25.9 °F 29.97 in SW 0.3 mph 1.2 mph 70 % 0.00 in
21:43 34.6 °F 25.8 °F 29.97 in Calm     70 % 0.00 in
21:53 34.4 °F 25.6 °F 29.97 in Calm     70 % 0.00 in
21:58 34.4 °F 25.6 °F 29.97 in Calm     70 % 0.00 in
22:04 34.2 °F 25.4 °F 29.97 in Calm     70 % 0.00 in
22:09 34.1 °F 25.7 °F 29.98 in SW 0.1 mph 1.2 mph 71 % 0.00 in
22:14 34.0 °F 25.6 °F 29.98 in Calm   1.2 mph 71 % 0.00 in
22:29 33.9 °F 25.8 °F 29.96 in Calm     72 % 0.00 in
22:34 33.8 °F 25.7 °F 29.96 in Calm     72 % 0.00 in
22:44 33.7 °F 25.6 °F 29.96 in Calm     72 % 0.00 in
22:49 33.8 °F 25.7 °F 29.96 in Calm     72 % 0.00 in
22:55 33.7 °F 25.6 °F 29.96 in Calm     72 % 0.00 in
23:00 33.7 °F 26.0 °F 29.96 in SW 0.5 mph 1.2 mph 73 % 0.00 in
23:05 33.7 °F 25.6 °F 29.95 in SW 0.1 mph   72 % 0.00 in
23:10 33.7 °F 25.6 °F 29.96 in Calm     72 % 0.00 in
23:15 33.7 °F 25.6 °F 29.95 in Calm   1.0 mph 72 % 0.00 in
23:20 33.7 °F 25.6 °F 29.96 in Calm     72 % 0.00 in
23:25 33.7 °F 25.6 °F 29.96 in Calm     72 % 0.00 in
23:30 33.8 °F 25.7 °F 29.96 in Calm     72 % 0.00 in
23:35 33.8 °F 26.1 °F 29.95 in Calm     73 % 0.00 in
23:51 33.8 °F 25.7 °F 29.95 in Calm     72 % 0.00 in
23:56 33.8 °F 25.7 °F 29.95 in Calm     72 % 0.00 in
Crab Meadow Weather
Compliments of Weather Underground - 2.75 mb

Script developed by  Jim McMurry - jmcmurry@mwt.net Adapted for the template by  Wim van der Kuil - Leuven-Template.eu

Hurricanes: Hurricanes are classified into five categories, based on their wind speeds and potential to cause damage. * Category One -- Winds 74-95 miles per hour * Category Two -- Winds 96-110 miles per hour * Category Three -- Winds 111-130 miles per hour * Category Four -- Winds 131-155 miles per hour * Category Five -- Winds greater than 155 miles per hour.